Location: Maddington
(51.2000°N, 1.9167°W)
Time: 15:46:28
(UTC+00:00)

Cosmos 1125 Rocket - Pass Details

Date: 25 June 2021
Orbit: 757 x 780 km, 74.0° (Epoch: 28 July)

Event Time Altitude Azimuth Distance (km) Brightness Sun altitude
Rises 23:02:47 0° 340° (NNW) 3,246 8.7 -14.0°
Reaches altitude 10° 23:06:20 10° 5° (N) 2,321 7.2 -14.1°
Maximum altitude 23:09:12 15° 38° (NE) 2,021 6.2 -14.2°
Drops below altitude 10° 23:12:04 10° 71° (ENE) 2,324 6.1 -14.3°
Sets 23:15:36 0° 95° (E) 3,253 6.6 -14.5°
